Weather History for Kingston, Jamaica

Change the Weather History Date:

Tuesday, May 17, 2011

  Actual Average Record
Temperature  
Mean Temperature 82 °F -  
Max Temperature 88 °F 87 °F 91 °F (2002)
Min Temperature 76 °F 78 °F 75 °F (2000)
Cooling Degree Days 17    
Growing Degree Days 32 (Base 50)    
Moisture  
Dew Point 64 °F    
Average Humidity 57    
Maximum Humidity 69    
Minimum Humidity 43    
Precipitation  
Precipitation 0.00 in - - ()
Sea Level Pressure  
Sea Level Pressure 29.84 in    
Wind  
Wind Speed 4 mph ()    
Max Wind Speed 9 mph    
Max Gust Speed -    
Visibility 6.7 miles    
Events      
Averages and records for this station are not official NWS values.
T = Trace of Precipitation, MM = Missing Value Source: Averaged Metar Reports

Daily Weather History Graph

Daily Weather History Graph

Search for Another Location

Airport:

Trip Planner

Search our weather history database for the weather conditions in past years. The results will help you decide how hot, cold, wet, or windy it might be!

Date:

Astronomy

May. 17, 2011 Rise Set
Actual Time 5:33 AM EST 6:33 PM EST
Civil Twilight 5:10 AM EST 6:56 PM EST
Nautical Twilight 4:42 AM EST 7:24 PM EST
Astronomical Twilight 4:14 AM EST 7:52 PM EST
Moon 7:04 PM EST (5/17) 5:29 AM EST (5/17)
Length of Visible Light 13h 46m
Length of Day
12h 59m
Full, 100% of the Moon is Illuminated
May 17
Full
May 24
Last Quarter
Jun 1
New
Jun 8
First Quarter
Jun 15
Full

Hourly Weather History & Observations

Time (EST) Temp. Heat Index Dew Point Humidity Pressure Visibility Wind Dir Wind Speed Gust Speed Precip Events Conditions
12:00 AM 77.0 °F - 66.2 °F 69% 29.86 in 6.2 mi WNW 3.5 mph - N/A   Partly Cloudy
1:00 AM 77 °F - 65 °F 58% 29.86 in 4 mi NW 3.5 mph - -   Haze
1:00 AM 77.0 °F - 64.4 °F 65% 29.86 in 6.2 mi NW 3.5 mph - N/A   Partly Cloudy
4:00 AM 76 °F - 65 °F 60% 29.82 in 12 mi WNW 3.5 mph - -   Haze
4:00 AM 75.2 °F - 64.4 °F 69% 29.80 in 6.2 mi WNW 3.5 mph - N/A   Partly Cloudy
5:00 AM 75.2 °F - 64.4 °F 69% 29.80 in 6.2 mi West 3.5 mph - N/A   Partly Cloudy
6:00 AM 77.0 °F - 64.4 °F 65% 29.83 in - WNW 3.5 mph - N/A   Clear
7:00 AM 76 °F - 64 °F 57% 29.85 in 4 mi WNW 5.8 mph - -   Haze
7:00 AM 77.0 °F - 64.4 °F 65% 29.83 in - WNW 5.8 mph - N/A   Clear
8:00 AM 78.8 °F - 62.6 °F 57% 29.86 in 6.2 mi NW 2.3 mph - N/A   Partly Cloudy
9:00 AM 80.6 °F 82.3 °F 64.4 °F 58% 29.86 in 6.2 mi West 3.5 mph - N/A   Partly Cloudy
10:00 AM 81 °F - 64 °F 46% 29.88 in 14 mi SSW 5.8 mph - -   Haze
10:00 AM 80.6 °F 82.3 °F 64.4 °F 58% 29.86 in 6.2 mi SSW 5.8 mph - N/A   Partly Cloudy
11:00 AM 82.4 °F 83.9 °F 64.4 °F 54% 29.86 in 6.2 mi SSW 6.9 mph - N/A   Partly Cloudy
12:00 PM 82.4 °F 83.9 °F 64.4 °F 54% 29.86 in 6.2 mi SSW 8.1 mph - N/A   Partly Cloudy
1:00 PM 83 °F - 64 °F 43% 29.85 in 4 mi South 8.1 mph - -   Haze
1:00 PM 84.2 °F 85.6 °F 64.4 °F 51% 29.83 in 6.2 mi South 8.1 mph - N/A   Partly Cloudy
2:00 PM 82.4 °F 83.4 °F 62.6 °F 51% 29.83 in 6.2 mi South 6.9 mph - N/A   Partly Cloudy
3:00 PM 82.4 °F 83.9 °F 64.4 °F 54% 29.80 in 6.2 mi SSE 6.9 mph - N/A   Partly Cloudy
4:00 PM 82 °F - 64 °F 44% 29.81 in 4 mi South 9.2 mph - -   Scattered Clouds
4:00 PM 82.4 °F 83.9 °F 64.4 °F 54% 29.80 in 6.2 mi South 9.2 mph - N/A   Partly Cloudy
5:00 PM 80.6 °F 81.8 °F 62.6 °F 54% 29.83 in 6.2 mi SSW 4.6 mph - N/A   Mostly Cloudy
6:00 PM 82.4 °F 83.9 °F 64.4 °F 54% 29.83 in 6.2 mi South 2.3 mph - N/A   Partly Cloudy
7:00 PM 80 °F - 64 °F 48% 29.84 in 17 mi SSW 3.5 mph - -   Haze
7:00 PM 80.6 °F 82.3 °F 64.4 °F 58% 29.83 in 6.2 mi SSW 3.5 mph - N/A   Partly Cloudy
8:00 PM 78.8 °F - 64.4 °F 61% 29.86 in 6.2 mi South 2.3 mph - N/A   Partly Cloudy
9:00 PM - - - N/A% - - North - - N/A   Unknown
10:00 PM 79 °F - 65 °F 53% 29.88 in 4 mi SE 1.2 mph - -   Haze
10:00 PM 78.8 °F - 64.4 °F 61% 29.86 in 6.2 mi ESE 1.2 mph - N/A   Partly Cloudy
11:00 PM 78.8 °F - 64.4 °F 61% 29.86 in 6.2 mi ESE 1.2 mph - N/A   Partly Cloudy